Photometre #847[NE_1.6_Dp] Glasgow_MO AOT

File : 20210609_847.hum

09/06/2021,04:56:38,TEMP=14.3,BA=5.68,STAT.A,ExtBa=12.10
09/06/2021,05:01:49,TEMP=14.4,BA=5.68,STAT.A,ExtBa=12.10
09/06/2021,05:07:48,TEMP=14.3,BA=5.68,STAT.A,ExtBa=12.10
09/06/2021,05:14:49,TEMP=14.3,BA=5.68,STAT.A,ExtBa=12.10
09/06/2021,05:23:09,TEMP=14.3,BA=5.68,STAT.A,ExtBa=12.10
09/06/2021,05:33:15,TEMP=14.2,BA=5.68,STAT.A,ExtBa=12.10
09/06/2021,05:44:23,TEMP=14.2,BA=5.68,STAT.D,ExtBa=12.10
09/06/2021,05:46:24,TEMP=14.7,BA=5.68,STAT.B,ExtBa=12.10
09/06/2021,05:51:37,TEMP=14.4,BA=5.68,STAT.A,ExtBa=12.10
09/06/2021,05:58:09,TEMP=14.4,BA=5.68,STAT.A,ExtBa=12.10
09/06/2021,06:05:24,TEMP=14.4,BA=5.64,STAT.A,ExtBa=12.10
09/06/2021,06:13:34,TEMP=14.5,BA=5.68,STAT.A,ExtBa=12.10
09/06/2021,06:22:48,TEMP=14.5,BA=5.68,STAT.C,ExtBa=12.10
09/06/2021,06:33:23,TEMP=14.6,BA=5.68,STAT.A,ExtBa=12.10
09/06/2021,06:44:23,TEMP=14.7,BA=5.68,STAT.D,ExtBa=12.10
09/06/2021,06:46:24,TEMP=15.2,BA=5.68,STAT.A,ExtBa=12.10
09/06/2021,07:00:01,TEMP=14.9,BA=5.68,STAT.A,ExtBa=12.10
09/06/2021,07:12:24,TEMP=15.0,BA=5.68,STAT.D,ExtBa=12.10
09/06/2021,07:17:15,TEMP=15.2,BA=5.68,STAT.A,ExtBa=12.10
09/06/2021,07:28:24,TEMP=15.2,BA=5.60,STAT.D,ExtBa=12.10
09/06/2021,07:38:25,TEMP=15.0,BA=5.64,STAT.B,ExtBa=12.10
09/06/2021,07:52:24,TEMP=14.7,BA=5.68,STAT.D,ExtBa=12.10
09/06/2021,08:04:24,TEMP=14.8,BA=5.68,STAT.D,ExtBa=12.10
09/06/2021,08:16:24,TEMP=14.9,BA=5.68,STAT.D,ExtBa=12.10
09/06/2021,08:21:54,TEMP=15.0,BA=5.68,STAT.B,ExtBa=12.10
09/06/2021,08:32:36,TEMP=14.9,BA=5.68,STAT.D,ExtBa=12.10
09/06/2021,08:44:24,TEMP=14.9,BA=5.68,STAT.D,ExtBa=12.10
09/06/2021,08:47:36,TEMP=14.9,BA=5.68,STAT.D,ExtBa=12.10
09/06/2021,09:00:24,TEMP=14.8,BA=5.68,STAT.D,ExtBa=12.10
09/06/2021,09:02:36,TEMP=15.1,BA=5.68,STAT.D,ExtBa=12.10
09/06/2021,09:16:25,TEMP=14.9,BA=5.68,STAT.D,ExtBa=12.10
09/06/2021,09:18:26,TEMP=15.3,BA=5.68,STAT.F,ExtBa=12.10
09/06/2021,09:32:25,TEMP=14.9,BA=5.68,STAT.D,ExtBa=12.10
09/06/2021,09:34:25,TEMP=15.4,BA=5.68,STAT.D,ExtBa=12.10
09/06/2021,09:47:37,TEMP=15.3,BA=5.68,STAT.D,ExtBa=12.10
09/06/2021,10:00:25,TEMP=15.4,BA=5.68,STAT.D,ExtBa=12.10
09/06/2021,10:02:37,TEMP=15.7,BA=5.68,STAT.D,ExtBa=12.10
09/06/2021,10:16:25,TEMP=15.4,BA=5.68,STAT.D,ExtBa=12.10
09/06/2021,10:18:25,TEMP=15.8,BA=5.68,STAT.F,ExtBa=12.10
09/06/2021,10:32:25,TEMP=15.3,BA=5.68,STAT.D,ExtBa=12.10
09/06/2021,10:34:24,TEMP=15.7,BA=5.68,STAT.D,ExtBa=12.10
09/06/2021,10:47:37,TEMP=15.2,BA=5.68,STAT.D,ExtBa=12.10
09/06/2021,11:00:25,TEMP=15.3,BA=5.68,STAT.D,ExtBa=12.10
09/06/2021,11:02:37,TEMP=15.7,BA=5.68,STAT.D,ExtBa=12.10
09/06/2021,11:16:25,TEMP=15.6,BA=5.68,STAT.D,ExtBa=12.10
09/06/2021,11:18:25,TEMP=16.1,BA=5.68,STAT.F,ExtBa=12.10
09/06/2021,11:32:25,TEMP=15.8,BA=5.68,STAT.D,ExtBa=12.10
09/06/2021,11:34:23,TEMP=16.2,BA=5.68,STAT.D,ExtBa=12.10
09/06/2021,11:47:37,TEMP=15.9,BA=5.68,STAT.D,ExtBa=12.10
09/06/2021,12:00:25,TEMP=15.9,BA=5.68,STAT.D,ExtBa=12.10
09/06/2021,12:02:37,TEMP=16.3,BA=5.68,STAT.D,ExtBa=12.10
09/06/2021,12:16:25,TEMP=16.0,BA=5.68,STAT.D,ExtBa=12.10
09/06/2021,12:18:24,TEMP=16.5,BA=5.68,STAT.F,ExtBa=12.10
09/06/2021,12:32:25,TEMP=16.2,BA=5.68,STAT.D,ExtBa=12.10
09/06/2021,12:34:23,TEMP=16.6,BA=5.68,STAT.D,ExtBa=12.10
09/06/2021,12:47:37,TEMP=16.3,BA=5.68,STAT.D,ExtBa=12.10
09/06/2021,13:00:25,TEMP=16.5,BA=5.68,STAT.D,ExtBa=12.10
09/06/2021,13:02:37,TEMP=16.9,BA=5.68,STAT.D,ExtBa=12.10
09/06/2021,13:16:25,TEMP=17.0,BA=5.68,STAT.D,ExtBa=12.10
09/06/2021,13:18:19,TEMP=17.5,BA=5.68,STAT.F,ExtBa=12.00
09/06/2021,13:32:25,TEMP=17.7,BA=5.68,STAT.D,ExtBa=12.10
09/06/2021,13:34:24,TEMP=18.2,BA=5.68,STAT.D,ExtBa=12.10
09/06/2021,13:47:37,TEMP=17.9,BA=5.68,STAT.D,ExtBa=12.10
09/06/2021,14:00:25,TEMP=17.8,BA=5.68,STAT.D,ExtBa=12.10
09/06/2021,14:02:37,TEMP=18.1,BA=5.68,STAT.D,ExtBa=12.10
09/06/2021,14:16:25,TEMP=17.6,BA=5.68,STAT.D,ExtBa=12.10
09/06/2021,14:18:26,TEMP=18.0,BA=5.68,STAT.F,ExtBa=12.10
09/06/2021,14:32:25,TEMP=17.4,BA=5.68,STAT.D,ExtBa=12.10
09/06/2021,14:34:24,TEMP=17.9,BA=5.68,STAT.D,ExtBa=12.10
09/06/2021,14:47:37,TEMP=17.6,BA=5.68,STAT.D,ExtBa=12.10
09/06/2021,15:00:24,TEMP=17.1,BA=5.68,STAT.D,ExtBa=12.10
09/06/2021,15:02:37,TEMP=17.4,BA=5.68,STAT.D,ExtBa=12.10
09/06/2021,15:16:25,TEMP=16.8,BA=5.68,STAT.D,ExtBa=12.10
09/06/2021,15:18:26,TEMP=17.2,BA=5.68,STAT.F,ExtBa=12.00
09/06/2021,15:32:25,TEMP=16.4,BA=5.68,STAT.D,ExtBa=12.10
09/06/2021,15:34:25,TEMP=16.8,BA=5.68,STAT.D,ExtBa=12.10
09/06/2021,15:47:36,TEMP=16.5,BA=5.68,STAT.D,ExtBa=12.10
09/06/2021,16:00:24,TEMP=16.4,BA=5.68,STAT.D,ExtBa=12.10
09/06/2021,16:02:36,TEMP=16.8,BA=5.68,STAT.D,ExtBa=12.10
09/06/2021,16:13:22,TEMP=16.4,BA=5.68,STAT.B,ExtBa=12.10
09/06/2021,16:24:24,TEMP=16.5,BA=5.68,STAT.D,ExtBa=12.10
09/06/2021,16:36:24,TEMP=16.4,BA=5.68,STAT.D,ExtBa=12.10
09/06/2021,16:48:24,TEMP=16.2,BA=5.68,STAT.D,ExtBa=12.10
09/06/2021,16:56:51,TEMP=16.2,BA=5.60,STAT.B,ExtBa=12.10
09/06/2021,17:08:24,TEMP=16.8,BA=5.68,STAT.D,ExtBa=12.10
09/06/2021,17:12:24,TEMP=17.3,BA=5.60,STAT.D,ExtBa=12.00
09/06/2021,17:17:59,TEMP=17.7,BA=5.60,STAT.A,ExtBa=12.00
09/06/2021,17:32:24,TEMP=17.8,BA=5.68,STAT.D,ExtBa=12.10
09/06/2021,17:35:13,TEMP=17.9,BA=5.68,STAT.A,ExtBa=12.10
09/06/2021,17:48:24,TEMP=17.1,BA=5.56,STAT.D,ExtBa=12.10
09/06/2021,17:50:24,TEMP=17.5,BA=5.60,STAT.A,ExtBa=12.00
09/06/2021,18:01:51,TEMP=16.8,BA=5.68,STAT.A,ExtBa=12.10
09/06/2021,18:12:26,TEMP=16.6,BA=5.68,STAT.C,ExtBa=12.10
09/06/2021,18:21:40,TEMP=16.3,BA=5.68,STAT.A,ExtBa=12.10
09/06/2021,18:29:50,TEMP=16.0,BA=5.68,STAT.A,ExtBa=12.10
09/06/2021,18:37:05,TEMP=15.9,BA=5.60,STAT.A,ExtBa=12.10
09/06/2021,18:43:37,TEMP=15.8,BA=5.68,STAT.A,ExtBa=12.10
09/06/2021,18:49:30,TEMP=15.8,BA=5.68,STAT.B,ExtBa=12.10
09/06/2021,19:00:24,TEMP=15.8,BA=5.68,STAT.D,ExtBa=12.10
09/06/2021,19:02:24,TEMP=16.2,BA=5.68,STAT.A,ExtBa=12.10
09/06/2021,19:12:05,TEMP=15.9,BA=5.68,STAT.A,ExtBa=12.10
09/06/2021,19:20:25,TEMP=16.0,BA=5.68,STAT.A,ExtBa=12.10
09/06/2021,19:27:26,TEMP=16.1,BA=5.68,STAT.A,ExtBa=12.10
09/06/2021,19:33:25,TEMP=16.0,BA=5.64,STAT.A,ExtBa=12.10
09/06/2021,19:38:37,TEMP=16.0,BA=5.64,STAT.A,ExtBa=12.10